Location: Fxbg
(38.3018°N, 77.4708°W)
Time: 02:39:58
(UTC-05:00)

ISS - Visible Passes

Search period start: 09 December 2023 00:00
Search period end: 19 December 2023 00:00
Orbit: 415 x 417 km, 51.6° (Epoch: 09 December)

Date Brightness Start Highest point End Pass type
(mag) Time Alt. Az. Time Alt. Az. Time Alt. Az.
14 Dec -0.5 06:20:09 10° SSE 06:22:14 16° SE 06:24:20 10° E visible
16 Dec -2.7 06:17:31 10° SSW 06:20:43 46° SE 06:23:57 10° ENE visible
17 Dec -1.5 05:29:00 10° S 05:31:47 25° SE 05:34:34 10° ENE visible
18 Dec -0.6 04:43:20 13° ESE 04:43:20 13° ESE 04:44:38 10° E visible
18 Dec -3.7 06:16:18 13° WSW 06:19:12 56° NW 06:22:31 10° NE visible
